Home > Weather > Witzenhausen > Past weeks

Flag for Germany Past Weather in Witzenhausen, Hesse, Germany — Yesterday and Last 2 Weeks

Now
60 °F

Overcast.


Feels Like: 60 °F
Forecast: 55 / 71 °F
Wind: 6 mph from Southwest

Location: Fritzlar

Current Time: Jun 29, 2016 at 5:54:43 AM

Latest Report: Jun 29, 2016 at 4:00 AM


Visibility: 16 mi

Pressure: 29.87 "Hg

Humidity: 90%

Dew Point: 57 °F

Location of WitzenhausenLocation

Past Weather in Witzenhausen — Graph

°F

Witzenhausen Temperature Yesterday

Maximum temperature yesterday: 71 °F (at 6:00 PM)
Minimum temperature yesterday: 54 °F (at 6:00 AM)
Average temperature yesterday: 63 °F

High & Low Weather Summary for the Past Weeks

 TemperatureHumidityPressure
High89 °F (Jun 23, 6:00 PM)97% (Jun 16, 4:00 AM)30.28 "Hg (Jun 16, 4:00 AM)
Low44 °F (Jun 20, 4:00 AM)39% (Jun 23, 3:00 PM)29.47 "Hg (Jun 14, 3:00 PM)
Average63 °F78%29.96 "Hg
* Reported Jun 14 4:00 AM — Jun 29 4:00 AM, Witzenhausen, Weather by CustomWeather, © 2016

Note: Actual official high and low records may vary slightly from our data, if they occured in-between our weather recording intervals... More about our weather records

Advertising

Witzenhausen Weather History for the Previous 24 Hours

Scroll right to see more
 ConditionsComfort  
Time TempWeatherWind HumidityBarometerVisibility
4:00 AM
Wed, Jun 29
60 °FOvercast.6 mph90%29.87 "Hg16 mi
3:00 AM62 °FLight rain. Overcast.5 mph87%29.88 "Hg16 mi
1:00 AM63 °FOvercast.3 mph79%29.91 "Hg19 mi
12:00 AM65 °FOvercast.5 mph73%29.92 "Hg19 mi
10:00 PM
Tue, Jun 28
65 °FPassing clouds.3 mph70%29.93 "Hg19 mi
9:00 PM66 °FScattered clouds.3 mph67%29.94 "Hg19 mi
7:00 PM71 °FPartly sunny.5 mph52%29.96 "Hg19 mi
6:00 PM71 °FPartly sunny.6 mph51%29.97 "Hg19 mi
4:00 PM70 °FPartly sunny.2 mph51%30.00 "Hg16 mi
3:00 PM69 °FPartly sunny.1 mph50%30.02 "Hg16 mi
1:00 PM67 °FPartly sunny.1 mph54%30.07 "Hg16 mi
12:00 PM64 °FPartly sunny.2 mph63%30.09 "Hg16 mi
10:00 AM60 °FOvercast.1 mph76%30.11 "Hg11 mi
9:00 AM58 °FOvercast.2 mph83%30.11 "Hg9 mi
7:00 AM54 °FFog.2 mph95%30.12 "Hg8 mi
6:00 AM54 °FFog.2 mph96%30.11 "Hg9 mi
Weather by CustomWeather, © 2016

See weather overviewHow to use our weather pages